timestamp,surface_pressure_avg,surface_temp_avg,battery_voltage,lat,long
2019-09-10 00:00:00+00:00,290.173,16.2,12.97,47.84626,-54.09684
2019-09-10 00:10:00+00:00,283.0013,16.2,12.89,47.84626,-54.09684
2019-09-10 00:20:00+00:00,282.4564,16.2,12.97,47.84626,-54.09684
2019-09-10 00:30:00+00:00,284.3813,16.2,12.97,47.84626,-54.09684
2019-09-10 00:40:00+00:00,278.0914,16.1,12.97,47.84626,-54.09684
2019-09-10 00:50:00+00:00,270.9681,16.0,12.97,47.84626,-54.09684
2019-09-10 01:00:00+00:00,270.6231,16.0,12.89,47.84626,-54.09684
2019-09-10 01:10:00+00:00,266.0897,16.0,12.81,47.84626,-54.09684
2019-09-10 01:20:00+00:00,257.8481,16.04,12.97,47.84626,-54.09684
2019-09-10 01:30:00+00:00,254.9031,16.04,12.97,47.84626,-54.09684
2019-09-10 01:40:00+00:00,251.828,16.08,12.97,47.84626,-54.09684
2019-09-10 01:50:00+00:00,245.9131,16.1,12.97,47.84626,-54.09684
2019-09-10 02:00:00+00:00,239.5731,16.1,12.89,47.84626,-54.09684
2019-09-10 02:10:00+00:00,238.2015,16.1,12.81,47.84626,-54.09684
2019-09-10 02:20:00+00:00,238.8131,16.1,12.89,47.84626,-54.09684
2019-09-10 02:30:00+00:00,239.6198,16.1,12.89,47.84626,-54.09684
2019-09-10 02:40:00+00:00,236.3565,16.1,12.97,47.84626,-54.09684
2019-09-10 02:50:00+00:00,231.6448,16.1,12.97,47.84626,-54.09684
2019-09-10 03:00:00+00:00,232.3665,16.1,12.89,47.84626,-54.09684
2019-09-10 03:10:00+00:00,232.8681,16.1,12.81,47.84626,-54.09684
2019-09-10 03:20:00+00:00,229.1697,16.1,12.89,47.84626,-54.09684
2019-09-10 03:30:00+00:00,228.8481,16.1,12.89,47.84626,-54.09684
2019-09-10 03:40:00+00:00,229.2514,16.1,12.97,47.84626,-54.09684
2019-09-10 03:50:00+00:00,227.3281,16.1,12.97,47.84626,-54.09684
2019-09-10 04:00:00+00:00,226.8181,16.1,12.89,47.84626,-54.09684
2019-09-10 04:10:00+00:00,226.9831,16.1,12.81,47.84626,-54.09684
2019-09-10 04:20:00+00:00,228.9431,16.1,12.89,47.84626,-54.09684
2019-09-10 04:30:00+00:00,230.9014,16.1,12.89,47.84626,-54.09684
2019-09-10 04:40:00+00:00,231.3548,16.1,12.89,47.84626,-54.09684
2019-09-10 04:50:00+00:00,235.4848,16.1,12.97,47.84626,-54.09684
2019-09-10 05:00:00+00:00,239.5597,16.1,12.89,47.84626,-54.09684
2019-09-10 05:10:00+00:00,240.3314,16.1,12.81,47.84626,-54.09684
2019-09-10 05:20:00+00:00,240.2314,16.1,12.89,47.84626,-54.09684
2019-09-10 05:30:00+00:00,243.3031,16.1,12.89,47.84626,-54.09684
2019-09-10 05:40:00+00:00,249.688,16.1,12.89,47.84626,-54.09684
2019-09-10 05:50:00+00:00,254.0464,16.1,12.89,47.84626,-54.09684
2019-09-10 06:00:00+00:00,257.328,16.11,12.81,47.84626,-54.09684
2019-09-10 06:10:00+00:00,262.7664,16.12,12.73,47.84626,-54.09684
2019-09-10 06:20:00+00:00,271.0981,16.1,12.81,47.84626,-54.09684
2019-09-10 06:30:00+00:00,276.118,16.1,12.89,47.84626,-54.09684
2019-09-10 06:40:00+00:00,277.563,16.1,12.89,47.84626,-54.09684
2019-09-10 06:50:00+00:00,282.2347,16.1,12.89,47.84626,-54.09684
2019-09-10 07:00:00+00:00,288.4331,16.1,12.81,47.84626,-54.09684
2019-09-10 07:10:00+00:00,289.6281,16.1,12.73,47.84626,-54.09684
2019-09-10 07:20:00+00:00,290.1431,16.1,12.81,47.84626,-54.09684
2019-09-10 07:30:00+00:00,294.9031,16.1,12.81,47.84626,-54.09684
2019-09-10 07:40:00+00:00,298.7314,16.1,12.81,47.84626,-54.09684
2019-09-10 07:50:00+00:00,300.658,16.1,12.89,47.84626,-54.09684
2019-09-10 08:00:00+00:00,302.2798,16.1,12.81,47.84626,-54.09684
2019-09-10 08:10:00+00:00,305.2379,16.1,12.73,47.84626,-54.09684
2019-09-10 08:20:00+00:00,307.353,16.1,12.81,47.84626,-54.09684
2019-09-10 08:30:00+00:00,309.6146,16.1,12.81,47.84626,-54.09684
2019-09-10 08:40:00+00:00,309.5447,16.1,12.81,47.84626,-54.09684
2019-09-10 08:50:00+00:00,308.4264,16.1,12.81,47.84626,-54.09684
2019-09-10 09:00:00+00:00,309.3248,16.1,12.73,47.84626,-54.09684
2019-09-10 09:10:00+00:00,312.9231,16.1,12.65,47.84626,-54.09684
2019-09-10 09:20:00+00:00,309.333,16.08,12.73,47.84626,-54.09684
2019-09-10 09:30:00+00:00,306.8313,16.0,12.81,47.84626,-54.09684
2019-09-10 09:40:00+00:00,307.298,16.04,12.97,47.84626,-54.09684
2019-09-10 09:50:00+00:00,309.9263,16.02,13.13,47.84626,-54.09684
2019-09-10 10:00:00+00:00,304.0264,16.0,13.21,47.84626,-54.09684
2019-09-10 10:10:00+00:00,301.6164,16.0,13.29,47.84626,-54.09684
2019-09-10 10:20:00+00:00,301.7863,15.9,13.37,47.84626,-54.09684
2019-09-10 10:30:00+00:00,300.878,15.91,13.76,47.84626,-54.09684
2019-09-10 10:40:00+00:00,296.5731,16.0,14.32,47.84626,-54.09684
2019-09-10 10:50:00+00:00,296.0414,15.9,15.27,47.84626,-54.09684
2019-09-10 11:00:00+00:00,293.5414,15.6,15.2,47.84626,-54.09684
2019-09-10 11:10:00+00:00,284.678,15.86,15.27,47.84626,-54.09684
2019-09-10 11:20:00+00:00,278.118,16.0,16.31,47.84626,-54.09684
2019-09-10 11:30:00+00:00,275.2197,15.9,16.39,47.84626,-54.09684
2019-09-10 11:40:00+00:00,268.0648,15.94,16.39,47.84626,-54.09684
2019-09-10 11:50:00+00:00,258.3181,16.08,16.15,47.84626,-54.09684
2019-09-10 12:00:00+00:00,254.3231,16.1,15.04,47.84626,-54.09684
2019-09-10 12:10:00+00:00,251.3014,16.09,15.04,47.84626,-54.09684
2019-09-10 12:20:00+00:00,244.9798,15.94,15.27,47.84626,-54.09684
2019-09-10 12:30:00+00:00,238.4648,15.9,15.11,47.84626,-54.09684
2019-09-10 12:40:00+00:00,238.5015,15.9,15.11,47.84626,-54.09684
2019-09-10 12:50:00+00:00,234.2081,15.9,15.11,47.84626,-54.09684
2019-09-10 13:00:00+00:00,225.0948,15.9,14.88,47.84626,-54.09684
2019-09-10 13:10:00+00:00,220.4281,15.8,14.8,47.84626,-54.09684
2019-09-10 13:20:00+00:00,220.328,15.8,14.96,47.84626,-54.09684
2019-09-10 13:30:00+00:00,215.3781,15.8,14.88,47.84626,-54.09684
2019-09-10 13:40:00+00:00,208.0481,15.8,14.96,47.84626,-54.09684
2019-09-10 13:50:00+00:00,204.1248,15.8,14.88,47.84626,-54.09684
2019-09-10 14:00:00+00:00,204.0648,15.8,14.72,47.84626,-54.09684
2019-09-10 14:10:00+00:00,203.5465,15.84,14.64,47.84626,-54.09684
2019-09-10 14:20:00+00:00,202.2981,15.86,14.8,47.84626,-54.09684
2019-09-10 14:30:00+00:00,200.7198,15.76,14.8,47.84626,-54.09684
2019-09-10 14:40:00+00:00,197.8415,15.7,14.48,47.84626,-54.09684
2019-09-10 14:50:00+00:00,198.1781,15.7,14.8,47.84626,-54.09684
2019-09-10 15:00:00+00:00,200.8281,15.7,14.48,47.84626,-54.09684
2019-09-10 15:10:00+00:00,197.6231,15.7,14.32,47.84626,-54.09684
2019-09-10 15:20:00+00:00,193.4248,15.7,14.24,47.84626,-54.09684
2019-09-10 15:30:00+00:00,196.4565,15.7,14.24,47.84626,-54.09684
2019-09-10 15:40:00+00:00,199.9764,15.55,14.16,47.84626,-54.09684
2019-09-10 15:50:00+00:00,197.5431,15.46,14.24,47.84626,-54.09684
2019-09-10 16:00:00+00:00,198.7798,15.48,14.24,47.84626,-54.09684
2019-09-10 16:10:00+00:00,205.3114,15.45,14.0,47.84626,-54.09684
2019-09-10 16:20:00+00:00,205.4214,15.4,14.08,47.84626,-54.09684
2019-09-10 16:30:00+00:00,203.7264,15.4,14.08,47.84626,-54.09684
2019-09-10 16:40:00+00:00,208.5898,15.38,14.08,47.84626,-54.09684
2019-09-10 16:50:00+00:00,214.5231,15.33,14.08,47.84626,-54.09684
2019-09-10 17:00:00+00:00,216.1997,15.31,14.0,47.84626,-54.09684
2019-09-10 17:10:00+00:00,217.6914,15.36,13.92,47.84626,-54.09684
2019-09-10 17:20:00+00:00,221.8898,15.37,14.0,47.84626,-54.09684
2019-09-10 17:30:00+00:00,225.7348,15.38,14.0,47.84626,-54.09684
2019-09-10 17:40:00+00:00,226.7715,15.35,14.0,47.84626,-54.09684
2019-09-10 17:50:00+00:00,230.6248,15.3,14.08,47.84626,-54.09684
2019-09-10 18:00:00+00:00,234.7247,15.3,14.0,47.84626,-54.09684
2019-09-10 18:10:00+00:00,237.5264,15.3,13.92,47.84626,-54.09684
2019-09-10 18:20:00+00:00,242.6981,15.3,14.08,47.84626,-54.09684
2019-09-10 18:30:00+00:00,249.3681,15.3,14.24,47.84626,-54.09684
2019-09-10 18:40:00+00:00,253.9564,15.37,14.32,47.84626,-54.09684
2019-09-10 18:50:00+00:00,260.0364,15.4,14.24,47.84626,-54.09684
2019-09-10 19:00:00+00:00,268.5081,15.4,14.16,47.84626,-54.09684
2019-09-10 19:10:00+00:00,275.0047,15.4,14.0,47.84626,-54.09684
2019-09-10 19:20:00+00:00,278.7448,15.47,14.08,47.84626,-54.09684
2019-09-10 19:30:00+00:00,283.3014,15.44,14.16,47.84626,-54.09684
2019-09-10 19:40:00+00:00,289.4681,15.45,14.08,47.84626,-54.09684
2019-09-10 19:50:00+00:00,293.8864,15.45,14.08,47.84626,-54.09684
2019-09-10 20:00:00+00:00,296.2081,15.4,14.0,47.84626,-54.09684
2019-09-10 20:10:00+00:00,300.7047,15.4,13.84,47.84626,-54.09684
2019-09-10 20:20:00+00:00,306.0897,15.29,13.84,47.84626,-54.09684
2019-09-10 20:30:00+00:00,311.4912,15.29,13.84,47.84626,-54.09684
2019-09-10 20:40:00+00:00,316.1379,15.3,13.92,47.84626,-54.09684
2019-09-10 20:50:00+00:00,319.6281,15.3,13.92,47.84626,-54.09684
2019-09-10 21:00:00+00:00,319.5997,15.3,13.84,47.84626,-54.09684
2019-09-10 21:10:00+00:00,321.9913,15.33,13.68,47.84626,-54.09684
2019-09-10 21:20:00+00:00,324.6281,15.34,13.68,47.84626,-54.09684
2019-09-10 21:30:00+00:00,326.9913,15.34,13.6,47.84626,-54.09684
2019-09-10 21:40:00+00:00,327.618,15.32,13.53,47.84626,-54.09684
2019-09-10 21:50:00+00:00,329.7479,15.31,13.53,47.84626,-54.09684
2019-09-10 22:00:00+00:00,330.8963,15.3,13.37,47.84626,-54.09684
2019-09-10 22:10:00+00:00,332.668,15.3,13.29,47.84626,-54.09684
2019-09-10 22:20:00+00:00,333.2714,15.3,13.29,47.84626,-54.09684
2019-09-10 22:30:00+00:00,331.593,15.3,13.21,47.84626,-54.09684
2019-09-10 22:40:00+00:00,328.0779,15.3,13.21,47.84626,-54.09684
2019-09-10 22:50:00+00:00,325.2797,15.3,13.21,47.84626,-54.09684
2019-09-10 23:00:00+00:00,324.0463,15.3,13.05,47.84626,-54.09684
2019-09-10 23:10:00+00:00,318.718,15.38,12.97,47.84626,-54.09684
2019-09-10 23:20:00+00:00,311.7913,15.48,12.97,47.84626,-54.09684
2019-09-10 23:30:00+00:00,307.6664,15.49,12.97,47.84626,-54.09684
2019-09-10 23:40:00+00:00,303.8063,15.47,12.97,47.84626,-54.09684
2019-09-10 23:50:00+00:00,297.2331,15.49,12.97,47.84626,-54.09684
